Find Starlink 3677

NORAD ID: 51970 Int'l Des: 2022-025 Owner: SPXS Country: US Constellation: starlink operational
LEOCIRCULARSTARLINK_TYPE

实时位置

正在加载3D地球...

关于 Starlink 3677

正在加载描述...

即将过境

Passes for default location (London). Set your location on the main map for personalized predictions.

高度历史

Loading altitude history...

两行轨道根数

1 51970U 22025Q 26125.43964637 .00001493 00000-0 64063-4 0 9991
2 51970 53.1589 133.0268 0001243 85.4466 274.6677 15.29362811229528
Epoch: May 5, 2026 • Age: 21 hours

当前状态

高度 486.8 km
速度 7.62 km/s
星下点 -28.62°S, 9.54°W
发射日期 Mar 9, 2022
运行时间 4.1 years
类型 internet

技术详情

分类 Payload
质量 297.00 kg
干质量 275.00 kg
总质量 297.00 kg
长度 0.20 m
直径 2.80 m
跨度 9.00 m
形状 Box + pan
制造商 SPXS
平台类型 Starlink
阶段状态 In Orbit
所有者/国家 SPXS/US

Most Searched